User: anonymous   Login
Location: Unspecified
(0.0000°N, 0.0000°E)
Time: 19:08:29
(UTC+00:00)
Language:

STARLINK-5172 - Orbit

View from above orbital plane
View from above orbital plane
View from above satellite
View from above satellite

Ground track
Ground track

The orbit is defined by the following mean orbital elements,

1 54064U          26145.47040493 +.00000000 +00000-0 +10887-3 0 00008
2 54064  53.2149 314.6185 0001159  90.4447 269.6678 15.08832722    09
Epoch (UTC): 25 May 2026 11:17:22
Eccentricity: 0.0001159
inclination: 53.2149°
perigee height: 539 km
apogee height: 541 km
right ascension of ascending node: 314.6185°
argument of perigee: 90.4447°
revolutions per day: 15.08832722
mean anomaly at epoch: 269.6678°

The dashed part of the orbit path shows where the satellite is in the earth's shadow,  

DLR